Location: Mohawk View
(42.7837°N, 73.7885°W)
Time: 17:05:26
(UTC+00:00)

Cosmos 1025 Rocket - Pass Details

Date: 17 June 2021
Orbit: 593 x 619 km, 82.5° (Epoch: 01 August)

Event Time Altitude Azimuth Distance (km) Brightness Sun altitude
Exits shadow 02:00:31 19° 142° (SE) 1,489 4.4 -12.5°
Maximum altitude 02:02:59 33° 91° (E) 1,048 3.9 -12.8°
Drops below altitude 10° 02:06:54 10° 27° (NNE) 1,982 6.0 -13.2°
Sets 02:09:17 0° 18° (NNE) 2,888 7.0 -13.5°
